Regional Weather Roundup
Issued by NWS Albany, NY

Home | Current Version | Previous Version | Text Only | Print | Product List | Glossary On
Versions: 1 2 3 4 5 6 7 8 9 10 11 12 13 14 15 16 17 18 19 20 21 22 23 24 25 26 27 28 29 30 31 32 33 34 35 36 37 38 39 40 41 42 43 44 45 46 47 48 49 50
000
ASUS41 KALY 182010
RWRALY

NEW YORK STATE HOURLY WEATHER ROUNDUP
NATIONAL WEATHER SERVICE ALBANY NY
400 PM EDT THU SEP 18 2014

NOTE: "FAIR" INDICATES FEW OR NO CLOUDS BELOW 12,000 FEET WITH NO
SIGNIFICANT WEATHER AND/OR NO OBSTRUCTIONS TO VISIBILITY.

NYZ032-033-038>043-046>054-057>066-NYZ062>081-182100-
EAST


CITY           SKY/WX    TMP DP  RH WIND       PRES   REMARKS
ALBANY         LGT RAIN  66  53  63 N8        30.01R
GLENS FALLS    CLOUDY    55  48  77 NE8       30.06R
POUGHKEEPSIE   MOSUNNY   75  45  34 VRB3      29.98S
MONTGOMERY     PTSUNNY   71  44  37 NW8       29.99R
WHITE PLAINS   MOSUNNY   74  42  31 NW8       29.98S
ISLIP          MOSUNNY   73  44  35 N6        29.97S
NEW YORK CITY  PTSUNNY   73  47  39 N7        29.98S
CENTRAL PARK   CLOUDY    72  47  40 CALM      30.01R
$$

NYZ005>009-017-018-044>046-055-056-182100-
CENTRAL


CITY           SKY/WX    TMP DP  RH WIND       PRES   REMARKS
FULTON         CLOUDY    56  46  69 N9        30.11R
SYRACUSE       CLOUDY    60  49  66 NW13      30.09R
ROME           MOSUNNY   62  52  69 NW9       30.07S
ELMIRA         MOSUNNY   65  54  67 NE16      30.05R
BINGHAMTON     PTSUNNY   64  49  57 CALM      30.05S
MONTICELLO     MOSUNNY   66  45  45 W6        30.04S
$$

NYZ026>034-041>043-182100-
NORTH


CITY           SKY/WX    TMP DP  RH WIND       PRES   REMARKS
WATERTOWN      CLOUDY    60  40  47 NE12      30.12R
FORT DRUM      NOT AVBL
MASSENA        MOSUNNY   55  35  47 VRB7      30.14R
SARANAC LAKE   CLOUDY    48  38  68 N6        30.08R
PLATTSBURGH    PTSUNNY   54  40  59 NW8       30.10S
$$

NYZ001>004-010>016-019>021-182100-
WEST


CITY           SKY/WX    TMP DP  RH WIND       PRES   REMARKS
NIAGARA FALLS  DRIZZLE   53  48  83 N6        30.15R
BUFFALO        CLOUDY    53  48  83 N7        30.14S
DUNKIRK        CLOUDY    58  52  80 N10       30.13S
JAMESTOWN      MOSUNNY   57  48  72 NW13      30.11R
WELLSVILLE     CLOUDY    61  46  57 N7        30.10S
ROCHESTER      CLOUDY    52  48  86 NE10      30.14R
PENN YAN       CLOUDY    56  49  77 VRB6      30.11R
$$

             KEY
       WCI = WIND CHILL INDEX
       VSB = VISIBILITY
       HX  = HEAT INDEX
$$


USA.gov is the U.S. government's official web portal to all federal, state and local government web resources and services.